FW7560 Weather Reports


time (UTC)temp
C
wind
direction
speed
KPH
gust
KPH
rain 1hr
cm
rain 24hr
cm
rain mn
cm
humidity
%
barometer
mb
20260508131603 8 0.0 0.0 0.00 0.00 0.00 75 1017.7
20260508130057 6 0.0 0.0 0.00 0.00 0.00 87 1017.8
20260508124555 5 0.0 0.0 0.00 0.03 0.00 92 1017.9
20260508123111 3 0.0 0.0 0.00 0.03 0.00 96 1017.6
20260508121604 2 0.0 0.0 0.00 0.03 0.00 97 1017.7
20260508120108 2 0.0 0.0 0.00 0.03 0.00 96 1017.6
20260508114601 1 0.0 0.0 0.00 0.03 0.00 96 1017.6
20260508113106 1 0.0 0.0 0.00 0.03 0.00 95 1017.5
20260508111556 0 0.0 0.0 0.00 0.03 0.00 95 1017.3
20260508110106 0 0.0 0.0 0.00 0.03 0.00 95 1017.1
20260508104556 0 0.0 0.0 0.00 0.03 0.00 95 1017.0
20260508103107 0 0.0 0.0 0.00 0.03 0.00 94 1017.0
20260508101556 0 0.0 0.0 0.00 0.03 0.00 94 1016.9
20260508100056 0 0.0 0.0 0.00 0.03 0.00 94 1016.7
20260508094623 0 0.0 0.0 0.00 0.03 0.00 94 1016.7
20260508093103 1 0.0 0.0 0.00 0.03 0.00 94 1016.5
20260508091611 1 0.0 0.0 0.00 0.03 0.00 94 1016.4
20260508084559 1 0.0 0.0 0.00 0.03 0.00 94 1016.3
20260508083100 1 0.0 0.0 0.00 0.03 0.00 94 1016.3
20260508081601 1 0.0 0.0 0.00 0.03 0.00 93 1016.2
20260508080053 1 0.0 0.0 0.00 0.03 0.00 94 1016.1
20260508074554 1 0.0 0.0 0.00 0.05 0.00 93 1016.3
20260508073052 2 0.0 0.0 0.00 0.05 0.00 93 1016.1
20260508071551 2 0.0 0.0 0.00 0.05 0.00 93 1015.9
20260508070056 2 0.0 0.0 0.00 0.05 0.00 92 1015.8
20260508064555 2 0.0 0.0 0.00 0.05 0.00 93 1015.9
20260508063103 2 0.0 0.0 0.00 0.05 0.00 92 1016.0
20260508061551 2 0.0 0.0 0.00 0.05 0.00 92 1016.2
20260508060055 3 0.0 0.0 0.00 0.05 0.00 91 1016.2
20260508054555 3 0.0 0.0 0.00 0.05 0.00 91 1016.3
20260508053103 3 0.0 0.0 0.00 0.05 0.00 91 1016.2
20260508051554 3 0.0 0.0 0.00 0.05 0.00 91 1016.1
20260508050052 4 0.0 0.0 0.00 0.05 0.00 90 1015.9
20260508044553 4 0.0 0.0 0.00 0.05 0.00 89 1015.7
20260508043059 5 0.0 0.0 0.00 0.05 0.00 89 1015.6
20260508041552 5 0.0 0.0 0.00 0.05 0.00 87 1015.6
20260508040056 6 0.0 0.0 0.00 0.05 0.00 86 1015.6
20260508034558 6 0.0 0.0 0.00 0.05 0.05 86 1015.3
20260508033053 6 0.0 0.0 0.00 0.05 0.05 86 1015.3
20260508031556 6 0.0 0.0 0.00 0.05 0.05 85 1015.3
20260508030056 7 0.0 0.0 0.00 0.05 0.05 83 1015.2
20260508024552 7 0.0 0.0 0.00 0.10 0.05 82 1015.0
20260508023055 7 0.0 0.0 0.00 0.10 0.05 80 1014.8
20260508021559 7 0.0 0.0 0.00 0.10 0.05 80 1014.6
20260508014551 8 0.0 0.0 0.00 0.13 0.05 79 1014.1
20260508013058 8 0.0 0.0 0.00 0.13 0.05 76 1013.8
20260508011558 9 0.0 0.0 0.00 0.13 0.05 74 1013.8
20260508010054 10 0.0 0.0 0.00 0.13 0.05 72 1013.7
20260508004556 10 0.0 0.0 0.00 0.30 0.05 71 1013.6
20260508003055 11 0.0 0.0 0.00 0.30 0.05 70 1013.3
20260508001613 11 0.0 0.0 0.00 0.30 0.05 68 1013.3
20260508000056 11 0.0 0.0 0.00 0.30 0.05 68 1013.3
20260507234557 11 0.0 0.0 0.00 0.30 0.05 67 1013.2
20260507233055 11 0.0 0.0 0.00 0.30 0.05 66 1013.3
20260507231552 12 0.0 0.0 0.00 0.30 0.05 67 1013.1
20260507230056 12 0.0 0.0 0.00 0.30 0.05 66 1013.1
20260507224600 12 0.0 0.0 0.00 0.30 0.05 65 1013.1
20260507223050 12 0.0 0.0 0.00 0.30 0.05 64 1012.9
20260507221642 13 0.0 0.0 0.00 0.30 0.05 65 1013.0
20260507220101 13 0.0 0.0 0.00 0.30 0.05 64 1012.8
20260507214604 12 0.0 0.0 0.00 0.30 0.05 65 1012.5
20260507213058 12 0.0 0.0 0.00 0.30 0.05 67 1012.5
20260507211555 11 0.0 0.0 0.00 0.30 0.05 69 1012.4
20260507210059 12 0.0 0.0 0.00 0.30 0.05 67 1012.1
20260507204558 12 0.0 0.0 0.00 0.30 0.05 65 1012.2
20260507203100 12 0.0 0.0 0.00 0.30 0.05 68 1012.1
20260507201600 11 0.0 0.0 0.00 0.30 0.05 71 1012.4
20260507200109 12 0.0 0.0 0.00 0.30 0.05 70 1012.7
20260507194557 12 0.0 0.0 0.00 0.30 0.05 71 1012.4
20260507193056 12 0.0 0.0 0.00 0.30 0.05 71 1012.6
20260507191558 12 0.0 0.0 0.00 0.30 0.05 70 1012.7
20260507190057 11 0.0 0.0 0.00 0.30 0.05 73 1012.9
20260507184603 11 0.0 0.0 0.00 0.30 0.05 70 1012.9
20260507183051 11 0.0 0.0 0.00 0.30 0.05 70 1013.1
20260507181600 11 0.0 0.0 0.00 0.30 0.05 72 1012.8
20260507180057 12 0.0 0.0 0.00 0.30 0.05 72 1013.1
20260507174556 12 0.0 0.0 0.00 0.30 0.05 72 1013.0
20260507173056 12 0.0 0.0 0.00 0.30 0.05 72 1013.0
20260507171601 11 0.0 0.0 0.00 0.30 0.05 72 1012.9
20260507170059 11 0.0 0.0 0.00 0.30 0.05 71 1013.2
20260507164557 11 0.0 0.0 0.00 0.41 0.05 76 1013.2
20260507163057 10 0.0 0.0 0.00 0.41 0.05 75 1013.4
20260507161556 10 0.0 0.0 0.00 0.41 0.05 80 1013.4
20260507160055 10 0.0 0.0 0.00 0.41 0.05 80 1013.4
20260507154604 9 0.0 0.0 0.00 0.43 0.05 82 1013.6
20260507153101 8 0.0 0.0 0.00 0.43 0.05 84 1013.7
20260507151556 8 0.0 0.0 0.00 0.43 0.05 88 1013.6
20260507150055 8 0.0 0.0 0.00 0.43 0.05 89 1013.6
20260507144552 8 0.0 0.0 0.00 0.46 0.05 91 1013.6
20260507143053 7 0.0 0.0 0.00 0.46 0.05 90 1013.8
20260507141552 7 0.0 0.0 0.00 0.46 0.05 92 1013.7
20260507140054 7 0.0 0.0 0.00 0.46 0.05 92 1013.7
20260507134555 7 0.0 0.0 0.00 0.56 0.05 93 1013.6
20260507133057 7 0.0 0.0 0.00 0.56 0.05 94 1013.6